Index of /Edu/zocodda/icons-160

[ICO]NameLast modifiedSizeDescription

[DIR]Parent Directory  -  
[IMG]com.PambuDev.galexia.10.png22-Jun-2018 08:29 6.2K 
[IMG]com.danielkim.soundrecorder.5.png22-Jun-2018 08:29 1.7K 
[IMG]com.darshancomputing.BatteryIndicatorPro.11108.png22-Jun-2018 08:29 2.2K 
[IMG]com.edelvives.player.50.png22-Jun-2018 08:29 3.0K 
[IMG]com.frozendevs.cache.cleaner.19.png22-Jun-2018 08:29 4.1K 
[IMG]com.google.android.inputmethod.pinyin.4401916.png22-Jun-2018 08:29 3.2K 
[IMG]com.google.android.stardroid.1113.png22-Jun-2018 08:29 4.9K 
[IMG]com.ichi2.anki.20302300.png22-Jun-2018 08:29 2.4K 
[IMG]com.ionicframework.luca416223.7.png22-Jun-2018 08:29 3.2K 
[IMG]com.midisheetmusic.8.png22-Jun-2018 08:29 3.3K 
[IMG]com.orange.ataud.es.101.png22-Jun-2018 08:29 5.8K 
[IMG]com.orange.diaadia.6.png22-Jun-2018 08:29 2.4K 
[IMG]com.projectefressa.Plaphoons.72.png22-Jun-2018 08:29 4.1K 
[IMG]com.soyvisual.player.2228.png22-Jun-2018 08:29 1.0K 
[IMG]com.uned.mathsapp.3.png22-Jun-2018 08:29 1.9K 
[IMG]com.write.Quill.41.png22-Jun-2018 08:29 4.8K 
[IMG]cx.hell.android.pdfview.41000.png22-Jun-2018 08:29 1.8K 
[IMG]cx.hell.android.pdfviewpro.40003.png22-Jun-2018 08:29 2.5K 
[IMG]de.appnotize.letmetalk.199.png22-Jun-2018 08:29 536  
[IMG]de.baumann.pdfcreator.17.png22-Jun-2018 08:29 2.0K 
[IMG]edu.mit.appinventor.aicompanion3.241.png22-Jun-2018 08:29 1.7K 
[IMG]es.juntadeandalucia.ced.senecadroid.110400.png22-Jun-2018 08:29 2.4K 
[IMG]eu.lavarde.pmtd.2014110820.png22-Jun-2018 08:29 2.3K 
[IMG]hsware.HSTempo.17.png22-Jun-2018 08:29 2.2K 
[IMG]net.fred.feedex.49.png22-Jun-2018 08:29 3.8K 
[IMG]openfoodfacts.github.scrachx.openfood.28.png22-Jun-2018 08:29 2.8K 
[IMG]org.lichess.mobileapp.4010034.png22-Jun-2018 08:29 1.1K 
[IMG]org.scratchjr.android.18.png22-Jun-2018 08:29 3.1K 
[IMG]org.tomdroid.14.png22-Jun-2018 08:29 3.1K 
[IMG]air.com.orange.emintza.1001000.png22-Jun-2018 08:29 3.7K 
[IMG]at.tomtasche.reader.34.png22-Jun-2018 08:29 1.6K 
[IMG]com.concentricsky.android.khan.14.png22-Jun-2018 08:29 3.1K 
[IMG]com.dnielfe.manager.59.png22-Jun-2018 08:29 2.8K 
[IMG]com.github.cetoolbox.1.png22-Jun-2018 08:29 1.6K 
[IMG]com.inmediastudio.aulavirtual.20000.png22-Jun-2018 08:29 3.8K 
[IMG]com.limbika.symbolsdownloader.2.png22-Jun-2018 08:29 1.7K 
[IMG]com.orange.dictapicto.23.png22-Jun-2018 08:29 1.4K 
[IMG]com.orange.duques.es.101.png22-Jun-2018 08:29 5.0K 
[IMG]com.orange.joseaprende.100008.png22-Jun-2018 08:29 5.1K 
[IMG]com.orange.sueno.es.101.png22-Jun-2018 08:29 5.0K 
[IMG]com.orange.ventana.es.101.png22-Jun-2018 08:29 4.6K 
[IMG]com.rhappsody.series.6.png22-Jun-2018 08:29 1.7K 
[IMG]com.sigseg.android.worldmap.5.png22-Jun-2018 08:29 5.5K 
[IMG]com.ultramegatech.ey.7.png22-Jun-2018 08:29 423  
[IMG]de.kugihan.dictionaryformids.hmi_android.103.png22-Jun-2018 08:29 3.7K 
[IMG]de.nico.ha_manager.16.png22-Jun-2018 08:29 1.3K 
[IMG]es.aemet.30.png22-Jun-2018 08:29 1.4K 
[IMG]io.github.droidapps.pdfreader.40000.png22-Jun-2018 08:29 2.8K 
[IMG]net.sourceforge.opencamera.25.png22-Jun-2018 08:29 2.0K 
[IMG]net.sourceforge.opencamera.45.png22-Jun-2018 08:29 2.5K 
[IMG]openfoodfacts.github.scrachx.openfood.33.png22-Jun-2018 08:29 3.0K 
[IMG]org.androidsoft.coloring.2.png22-Jun-2018 08:29 4.2K 
[IMG]org.androidsoft.games.memory.kids.16.png22-Jun-2018 08:29 4.3K 
[IMG]org.coolreader.875.png22-Jun-2018 08:29 3.9K 
[IMG]org.esteban.piano.6.png22-Jun-2018 08:29 2.2K 
[IMG]org.fdroid.fdroid.1000012.png22-Jun-2018 08:29 2.4K 
[IMG]org.geogebra.17.png22-Jun-2018 08:29 3.5K 
[IMG]org.geometerplus.zlibrary.ui.android.2000620.png22-Jun-2018 08:29 1.4K 
[IMG]org.osmdroid.11.png22-Jun-2018 08:29 6.2K 
[IMG]org.totschnig.sendwithftp.8.png22-Jun-2018 08:29 271  
[IMG]org.videolan.vlc.12000624.png22-Jun-2018 08:29 2.5K 
[IMG]org.wikipedia.84.png22-Jun-2018 08:29 1.5K 
[IMG]org.wordpress.android.103.png22-Jun-2018 08:29 2.9K 
[IMG]org.wordpress.android.147.png22-Jun-2018 08:29 2.9K 
[IMG]swati4star.createpdf.1.png22-Jun-2018 08:29 5.1K 
[IMG]trikita.obsqr.13.png22-Jun-2018 08:29 1.3K 
[IMG]de.t_dankworth.secscanqr.9.png22-Jun-2018 08:33 1.7K 

Apache/2.2.15 (CentOS) Server at guadalinex-edu.cica.es Port 80